GIA148 WIII-WIEE

Flight info

Callsign GIA148
Flight time N/A
Altitude 36000
Route GUDBA T6 LEBEG
Aircraft B738/M-SDE2E3FGHIRWXY/LB1

Departure

Time 2026-05-08 08:58
Airport Soekarno-Hatta International Airport (WIII)

Arrival

Time N/A
Airport Minangkabau International Airport (WIEE)
Time Latitude Longitude Altitude Speed Heading
2026-05-08 08:33 -6.11697 106.66601 37 ft 0 kts 160°
2026-05-08 08:45 -6.11696 106.66601 36 ft 2 kts 160°
2026-05-08 08:45 -6.11672 106.66592 37 ft 4 kts 158°
2026-05-08 08:45 -6.11647 106.66582 36 ft 4 kts 157°
2026-05-08 08:46 -6.11625 106.66572 36 ft 4 kts 160°
2026-05-08 08:46 -6.11602 106.66569 37 ft 4 kts 214°
2026-05-08 08:46 -6.11588 106.66589 37 ft 3 kts 249°
2026-05-08 08:46 -6.11585 106.66596 35 ft 0 kts 249°
2026-05-08 08:49 -6.11585 106.66595 37 ft 1 kts 249°
2026-05-08 08:50 -6.11597 106.66566 37 ft 8 kts 248°
2026-05-08 08:50 -6.11619 106.66509 37 ft 9 kts 249°
2026-05-08 08:50 -6.11641 106.66452 37 ft 9 kts 251°
2026-05-08 08:50 -6.11622 106.66400 36 ft 8 kts 324°
2026-05-08 08:51 -6.11567 106.66373 37 ft 10 kts 336°
2026-05-08 08:51 -6.11500 106.66347 37 ft 10 kts 340°
2026-05-08 08:51 -6.11432 106.66322 37 ft 11 kts 339°
2026-05-08 08:51 -6.11358 106.66288 37 ft 12 kts 317°
2026-05-08 08:52 -6.11362 106.66205 37 ft 14 kts 248°
2026-05-08 08:52 -6.11411 106.66082 35 ft 22 kts 248°
2026-05-08 08:52 -6.11467 106.65941 36 ft 22 kts 248°
2026-05-08 08:52 -6.11522 106.65802 36 ft 21 kts 248°
2026-05-08 08:53 -6.11575 106.65667 35 ft 20 kts 249°
2026-05-08 08:53 -6.11628 106.65538 34 ft 20 kts 248°
2026-05-08 08:53 -6.11678 106.65411 37 ft 19 kts 248°
2026-05-08 08:53 -6.11727 106.65289 37 ft 19 kts 248°
2026-05-08 08:54 -6.11773 106.65170 36 ft 18 kts 248°
2026-05-08 08:54 -6.11820 106.65055 36 ft 20 kts 248°
2026-05-08 08:54 -6.11873 106.64923 37 ft 20 kts 248°
2026-05-08 08:54 -6.11924 106.64793 37 ft 20 kts 248°
2026-05-08 08:55 -6.11974 106.64666 36 ft 19 kts 248°
2026-05-08 08:55 -6.12024 106.64545 37 ft 18 kts 248°
2026-05-08 08:55 -6.12071 106.64423 37 ft 19 kts 248°
2026-05-08 08:55 -6.12122 106.64295 37 ft 21 kts 248°
2026-05-08 08:56 -6.12178 106.64157 36 ft 21 kts 248°
2026-05-08 08:56 -6.12225 106.64039 37 ft 16 kts 248°
2026-05-08 08:56 -6.12257 106.63939 38 ft 14 kts 272°
2026-05-08 08:56 -6.12194 106.63880 38 ft 13 kts 351°
2026-05-08 08:57 -6.12110 106.63903 38 ft 13 kts 22°
2026-05-08 08:57 -6.12054 106.63974 35 ft 21 kts 66°
2026-05-08 08:57 -6.11907 106.64342 36 ft 93 kts 68°
2026-05-08 08:57 -6.11588 106.65149 38 ft 154 kts 68°
2026-05-08 08:58 -6.11125 106.66260 364 ft 180 kts 66°
2026-05-08 08:58 -6.10679 106.67415 1166 ft 182 kts 68°
2026-05-08 08:58 -6.09975 106.68440 1935 ft 184 kts 33°
2026-05-08 08:58 -6.08777 106.69140 2265 ft 214 kts 29°
2026-05-08 08:59 -6.07419 106.69937 2513 ft 237 kts 31°
2026-05-08 08:59 -6.05932 106.70825 2803 ft 261 kts 31°
2026-05-08 08:59 -6.04349 106.71784 3519 ft 268 kts 32°
2026-05-08 08:59 -6.02751 106.72778 4381 ft 271 kts 33°
2026-05-08 09:00 -6.01136 106.73792 5201 ft 276 kts 33°
2026-05-08 09:00 -5.99400 106.74620 6036 ft 281 kts 12°
2026-05-08 09:00 -5.97446 106.74571 6838 ft 287 kts 344°
2026-05-08 09:00 -5.95718 106.73576 7608 ft 292 kts 314°
2026-05-08 09:01 -5.94593 106.71889 8364 ft 296 kts 296°
2026-05-08 09:01 -5.93723 106.69993 9082 ft 301 kts 294°
2026-05-08 09:01 -5.92879 106.68078 9805 ft 305 kts 294°
2026-05-08 09:01 -5.91999 106.66118 10450 ft 313 kts 295°
2026-05-08 09:02 -5.91055 106.64058 10618 ft 336 kts 295°
2026-05-08 09:02 -5.90039 106.61864 10787 ft 356 kts 295°
2026-05-08 09:02 -5.88961 106.59548 10972 ft 374 kts 295°
2026-05-08 09:02 -5.87843 106.57151 11405 ft 382 kts 295°
2026-05-08 09:03 -5.86712 106.54729 12096 ft 382 kts 295°
2026-05-08 09:03 -5.85579 106.52299 12708 ft 385 kts 295°
2026-05-08 09:03 -5.84436 106.49845 13218 ft 390 kts 295°
2026-05-08 09:03 -5.83281 106.47368 13721 ft 394 kts 295°
2026-05-08 09:04 -5.82119 106.44874 13784 ft 394 kts 295°
2026-05-08 09:04 -5.80970 106.42403 13834 ft 398 kts 295°
2026-05-08 09:04 -5.79781 106.39839 14370 ft 400 kts 295°
2026-05-08 09:04 -5.78666 106.37437 14938 ft 401 kts 295°
2026-05-08 09:05 -5.77479 106.34879 15441 ft 405 kts 295°
2026-05-08 09:05 -5.76288 106.32311 15922 ft 408 kts 295°
2026-05-08 09:05 -5.75079 106.29713 16408 ft 412 kts 295°
2026-05-08 09:05 -5.73872 106.27087 16870 ft 415 kts 293°
2026-05-08 09:06 -5.72965 106.24328 17337 ft 418 kts 284°
2026-05-08 09:06 -5.72281 106.21490 17777 ft 421 kts 283°
2026-05-08 09:06 -5.71637 106.18608 18182 ft 424 kts 282°
2026-05-08 09:06 -5.70986 106.15700 18616 ft 427 kts 282°
2026-05-08 09:07 -5.70321 106.12794 19075 ft 427 kts 283°
2026-05-08 09:07 -5.69642 106.09912 19412 ft 431 kts 283°
2026-05-08 09:07 -5.68935 106.06974 19803 ft 433 kts 283°
2026-05-08 09:07 -5.68216 106.04026 20217 ft 435 kts 284°
2026-05-08 09:08 -5.67491 106.01070 20624 ft 436 kts 284°
2026-05-08 09:08 -5.66761 105.98102 20978 ft 439 kts 284°
2026-05-08 09:08 -5.66027 105.95116 21305 ft 442 kts 284°
2026-05-08 09:08 -5.65291 105.92117 21663 ft 443 kts 284°
2026-05-08 09:09 -5.64802 105.90123 21883 ft 444 kts 284°
2026-05-08 09:09 -5.63810 105.86077 22313 ft 448 kts 284°
2026-05-08 09:09 -5.63317 105.84068 22540 ft 448 kts 284°
2026-05-08 09:09 -5.62569 105.81022 22849 ft 450 kts 284°
2026-05-08 09:10 -5.61819 105.77965 23163 ft 451 kts 284°
2026-05-08 09:10 -5.61066 105.74898 23401 ft 454 kts 284°
2026-05-08 09:10 -5.60308 105.71813 23644 ft 456 kts 284°
2026-05-08 09:10 -5.59546 105.68715 23924 ft 457 kts 284°
2026-05-08 09:11 -5.58785 105.65614 24184 ft 458 kts 284°
2026-05-08 09:11 -5.58027 105.62529 24386 ft 461 kts 284°
2026-05-08 09:11 -5.57254 105.59383 24605 ft 463 kts 284°
2026-05-08 09:11 -5.56442 105.56250 24797 ft 465 kts 288°
2026-05-08 09:12 -5.54984 105.53357 24884 ft 467 kts 307°
2026-05-08 09:12 -5.53013 105.50777 25233 ft 465 kts 308°
2026-05-08 09:12 -5.51056 105.48189 25467 ft 466 kts 307°
2026-05-08 09:12 -5.49097 105.45567 25656 ft 469 kts 307°
2026-05-08 09:13 -5.47151 105.42934 25859 ft 470 kts 307°
2026-05-08 09:13 -5.45206 105.40286 26059 ft 472 kts 307°
2026-05-08 09:13 -5.43263 105.37629 26257 ft 473 kts 307°
2026-05-08 09:13 -5.41314 105.34960 26469 ft 475 kts 307°
2026-05-08 09:14 -5.39359 105.32284 26665 ft 476 kts 307°
2026-05-08 09:14 -5.37421 105.29631 26857 ft 477 kts 307°
2026-05-08 09:14 -5.35453 105.26941 27059 ft 478 kts 307°
2026-05-08 09:14 -5.33484 105.24247 27251 ft 479 kts 307°
2026-05-08 09:15 -5.31501 105.21534 27399 ft 481 kts 307°
2026-05-08 09:15 -5.29516 105.18821 27565 ft 482 kts 307°
2026-05-08 09:15 -5.27527 105.16106 27735 ft 483 kts 307°
2026-05-08 09:15 -5.25534 105.13385 27911 ft 484 kts 307°
2026-05-08 09:16 -5.23528 105.10646 28061 ft 486 kts 307°
2026-05-08 09:16 -5.21550 105.07945 28202 ft 487 kts 307°
2026-05-08 09:16 -5.19543 105.05201 28344 ft 488 kts 307°
2026-05-08 09:16 -5.17533 105.02455 28489 ft 489 kts 307°
2026-05-08 09:17 -5.15518 104.99703 28643 ft 490 kts 307°
2026-05-08 09:17 -5.13492 104.96936 28776 ft 491 kts 307°
2026-05-08 09:17 -5.11470 104.94174 28973 ft 491 kts 307°
2026-05-08 09:17 -5.09452 104.91420 29192 ft 489 kts 307°
2026-05-08 09:18 -5.07436 104.88668 29415 ft 489 kts 307°
2026-05-08 09:18 -5.05425 104.85923 29594 ft 489 kts 307°
2026-05-08 09:18 -5.03408 104.83171 29783 ft 489 kts 307°
2026-05-08 09:18 -5.01397 104.80427 30012 ft 488 kts 307°
2026-05-08 09:19 -4.99387 104.77686 30220 ft 487 kts 307°
2026-05-08 09:19 -4.97379 104.74948 30451 ft 486 kts 307°
2026-05-08 09:19 -4.95398 104.72247 30704 ft 485 kts 307°
2026-05-08 09:19 -4.93402 104.69523 30950 ft 485 kts 307°
2026-05-08 09:20 -4.91398 104.66794 31143 ft 485 kts 307°
2026-05-08 09:20 -4.89401 104.64070 31369 ft 484 kts 307°
2026-05-08 09:20 -4.87408 104.61349 31629 ft 483 kts 307°
2026-05-08 09:20 -4.85418 104.58636 31917 ft 481 kts 307°
2026-05-08 09:21 -4.83439 104.55938 32174 ft 480 kts 307°
2026-05-08 09:21 -4.81463 104.53246 32405 ft 479 kts 307°
2026-05-08 09:22 -4.69714 104.37208 33820 ft 473 kts 308°
2026-05-08 09:23 -4.67750 104.34547 34000 ft 474 kts 308°
2026-05-08 09:23 -4.65796 104.31893 34254 ft 473 kts 308°
2026-05-08 09:23 -4.63844 104.29243 34510 ft 472 kts 308°
2026-05-08 09:23 -4.61899 104.26596 34731 ft 471 kts 308°
2026-05-08 09:24 -4.59976 104.23981 34917 ft 471 kts 308°
2026-05-08 09:24 -4.58030 104.21332 35116 ft 472 kts 308°
2026-05-08 09:24 -4.56085 104.18684 35342 ft 471 kts 308°
2026-05-08 09:24 -4.54142 104.16039 35567 ft 470 kts 308°
2026-05-08 09:25 -4.52203 104.13398 35754 ft 470 kts 308°
2026-05-08 09:25 -4.48308 104.08098 35795 ft 473 kts 308°
2026-05-08 09:26 -4.44415 104.02802 35808 ft 471 kts 308°
2026-05-08 09:26 -4.40538 103.97532 35802 ft 469 kts 308°
2026-05-08 09:27 -4.36745 103.92373 35802 ft 467 kts 308°
2026-05-08 09:27 -4.32913 103.87168 35808 ft 466 kts 308°
2026-05-08 09:28 -4.29056 103.81918 35810 ft 467 kts 308°
2026-05-08 09:28 -4.25192 103.76667 35808 ft 468 kts 308°
2026-05-08 09:29 -4.21320 103.71405 35806 ft 469 kts 308°
2026-05-08 09:29 -4.17438 103.66131 35807 ft 470 kts 308°
2026-05-08 09:30 -4.13552 103.60852 35808 ft 472 kts 308°
2026-05-08 09:30 -4.09673 103.55585 35808 ft 473 kts 308°
2026-05-08 09:31 -4.05764 103.50280 35800 ft 474 kts 308°
2026-05-08 09:31 -4.01851 103.44966 35805 ft 474 kts 308°
2026-05-08 09:32 -3.97943 103.39658 35799 ft 473 kts 308°
2026-05-08 09:32 -3.94042 103.34362 35794 ft 472 kts 308°
2026-05-08 09:33 -3.90148 103.29084 35811 ft 470 kts 308°
2026-05-08 09:33 -3.86283 103.23842 35811 ft 470 kts 308°
2026-05-08 09:34 -3.82396 103.18571 35795 ft 470 kts 308°
2026-05-08 09:34 -3.78511 103.13306 35810 ft 470 kts 308°
2026-05-08 09:35 -3.74621 103.08031 35804 ft 470 kts 308°
2026-05-08 09:35 -3.70726 103.02747 35810 ft 470 kts 308°
2026-05-08 09:36 -3.66870 102.97519 35821 ft 471 kts 308°
2026-05-08 09:36 -3.62973 102.92241 35813 ft 472 kts 308°
2026-05-08 09:37 -3.59069 102.86954 35814 ft 472 kts 307°
2026-05-08 09:37 -3.55155 102.81646 35813 ft 472 kts 308°
2026-05-08 09:38 -3.51272 102.76387 35814 ft 472 kts 308°
2026-05-08 09:38 -3.47363 102.71090 35817 ft 472 kts 307°
2026-05-08 09:39 -3.43461 102.65801 35814 ft 472 kts 308°
2026-05-08 09:39 -3.39551 102.60510 35814 ft 472 kts 307°
2026-05-08 09:40 -3.35649 102.55229 35811 ft 471 kts 307°
2026-05-08 09:40 -3.31779 102.49992 35818 ft 471 kts 307°
2026-05-08 09:41 -3.27884 102.44722 35812 ft 471 kts 307°
2026-05-08 09:41 -3.23992 102.39457 35819 ft 470 kts 307°
2026-05-08 09:42 -3.20102 102.34188 35813 ft 470 kts 307°
2026-05-08 09:42 -3.16210 102.28928 35813 ft 470 kts 307°
2026-05-08 09:43 -3.12319 102.23665 35825 ft 470 kts 308°
2026-05-08 09:43 -3.08447 102.18427 35824 ft 470 kts 308°
2026-05-08 09:44 -3.04558 102.13168 35818 ft 470 kts 308°
2026-05-08 09:44 -3.00664 102.07901 35830 ft 470 kts 308°
2026-05-08 09:45 -2.96771 102.02638 35824 ft 470 kts 308°
2026-05-08 09:45 -2.92897 101.97400 35822 ft 470 kts 308°
2026-05-08 09:46 -2.89000 101.92135 35826 ft 471 kts 308°
2026-05-08 09:46 -2.85098 101.86862 35830 ft 471 kts 308°
2026-05-08 09:47 -2.81197 101.81592 35832 ft 471 kts 308°
2026-05-08 09:47 -2.77294 101.76318 35832 ft 471 kts 308°
2026-05-08 09:48 -2.73392 101.71048 35840 ft 471 kts 308°
2026-05-08 09:48 -2.69512 101.65807 35830 ft 472 kts 308°
2026-05-08 09:49 -2.65605 101.60527 35825 ft 472 kts 308°
2026-05-08 09:49 -2.61694 101.55255 35836 ft 471 kts 308°
2026-05-08 09:50 -2.57787 101.50002 35842 ft 471 kts 308°
2026-05-08 09:50 -2.53882 101.44752 35843 ft 470 kts 308°
2026-05-08 09:51 -2.50002 101.39532 35832 ft 471 kts 308°
2026-05-08 09:51 -2.46099 101.34281 35832 ft 470 kts 308°
2026-05-08 09:52 -2.42194 101.29026 35836 ft 470 kts 308°
2026-05-08 09:52 -2.38286 101.23772 35835 ft 471 kts 308°
2026-05-08 09:53 -2.34381 101.18504 35837 ft 471 kts 308°
2026-05-08 09:53 -2.30506 101.13271 35623 ft 475 kts 308°
2026-05-08 09:53 -2.28546 101.10620 35371 ft 473 kts 308°
2026-05-08 09:54 -2.26672 101.08086 35127 ft 472 kts 308°
2026-05-08 09:54 -2.24898 101.05690 34835 ft 471 kts 308°
2026-05-08 09:54 -2.23039 101.03179 34140 ft 472 kts 307°
2026-05-08 09:54 -2.21294 101.00818 33579 ft 471 kts 307°
2026-05-08 09:55 -2.19593 100.98518 32939 ft 473 kts 307°
2026-05-08 09:55 -2.18171 100.96596 32422 ft 473 kts 307°
2026-05-08 09:55 -2.16492 100.94327 31785 ft 475 kts 307°
2026-05-08 09:55 -2.15158 100.92524 31264 ft 476 kts 307°
2026-05-08 09:56 -2.14147 100.91162 30852 ft 477 kts 307°
2026-05-08 09:56 -2.13012 100.89601 30409 ft 477 kts 307°
2026-05-08 09:56 -2.11416 100.87449 29761 ft 479 kts 307°
2026-05-08 09:56 -2.09784 100.85251 29311 ft 475 kts 307°
2026-05-08 09:57 -2.06681 100.81072 28473 ft 465 kts 306°
2026-05-08 09:57 -2.05219 100.79099 28093 ft 459 kts 307°
2026-05-08 09:57 -2.04326 100.77898 27837 ft 455 kts 307°
2026-05-08 09:58 -2.03505 100.76794 27550 ft 452 kts 309°
2026-05-08 09:58 -2.01989 100.74786 26988 ft 449 kts 308°
2026-05-08 09:58 -2.00093 100.72219 26425 ft 446 kts 308°
2026-05-08 09:58 -1.99088 100.70851 26130 ft 444 kts 308°
2026-05-08 09:59 -1.98355 100.69853 25910 ft 443 kts 308°
2026-05-08 09:59 -1.97266 100.68373 25579 ft 441 kts 308°
2026-05-08 09:59 -1.95813 100.66408 25143 ft 439 kts 308°
2026-05-08 09:59 -1.95129 100.65480 24936 ft 438 kts 308°
2026-05-08 10:00 -1.93793 100.63669 24531 ft 436 kts 308°
2026-05-08 10:00 -1.92549 100.61985 24150 ft 435 kts 308°
2026-05-08 10:00 -1.91698 100.60834 23890 ft 433 kts 308°
2026-05-08 10:00 -1.90908 100.59796 23652 ft 432 kts 310°
2026-05-08 10:01 -1.89523 100.58032 23249 ft 429 kts 308°
2026-05-08 10:01 -1.88323 100.56578 22980 ft 424 kts 314°
2026-05-08 10:01 -1.86980 100.55436 22671 ft 421 kts 325°